Flag Weather past 2 weeks in Ho Chi Minh, Vietnam

Now
79 °F

Sunny.


Feels Like: 82 °F
Forecast: 77 / 94 °F
Wind: 5 mph from North

Location: Ho Chi Minh

Current Time: Nov 22, 2014 at 7:24:59 AM

Latest Report: Nov 22, 2014 at 7:00 AM


Visibility: 10 mi

Pressure: 29.86 "Hg

Humidity: 79%

Dew point: 72 °F

Location of Ho Chi MinhLocation

Historic Weather in Ho Chi Minh — Graph

°F

Ho Chi Minh temperature yesterday

Maximum temperature yesterday: 91 °F (at 11:00 AM)
Minimum temperature yesterday: 75 °F (at 4:30 AM)
Average temperature yesterday: 82 °F

Past Weeks' High & Low Weather Summary

 TemperatureHumidityPressure
High97 °F (Nov 16, 3:30 PM)94% (Nov 12, 6:00 AM)29.95 "Hg (Nov 12, 6:00 AM)
Low73 °F (Nov 13, 9:00 PM)34% (Nov 16, 2:30 PM)29.71 "Hg (Nov 16, 3:00 PM)
Average83 °F69%29.83 "Hg
* Reported Nov 7 6:00 AM — Nov 22 6:30 AM, Ho Chi Minh, Weather by CustomWeather, © 2014

Note: Actual official high and low records may vary slightly from our data, if they occured in-between our weather recording intervals... More about our weather records

Advertising

Ho Chi Minh weather history for previous 24 hours

 ConditionsComfort  
Time TempWeatherWind HumidityBarometerVisibility
6:30 AM
Nov 22
79 °FScattered clouds.1 mph84%29.83 "Hg4 mi
6:00 AM77 °FScattered clouds.2 mph89%29.83 "HgN/A
5:30 AM77 °FPassing clouds.1 mph89%29.83 "HgN/A
4:30 AM77 °FPassing clouds.No wind89%29.80 "HgN/A
4:00 AM77 °FPassing clouds.1 mph89%29.80 "HgN/A
3:30 AM77 °FPassing clouds.2 mph89%29.80 "HgN/A
3:00 AM77 °FPassing clouds.2 mph89%29.80 "HgN/A
2:30 AM77 °FPassing clouds.No wind89%29.80 "HgN/A
2:00 AM77 °FPassing clouds.1 mph89%29.83 "HgN/A
1:30 AM77 °FPassing clouds.2 mph89%29.83 "HgN/A
1:00 AM77 °FPassing clouds.3 mph89%29.83 "HgN/A
12:30 AM77 °FPassing clouds.2 mph89%29.83 "HgN/A
12:00 AM77 °FPassing clouds.5 mph89%29.86 "HgN/A
11:30 PM
Nov 21
77 °FPassing clouds.2 mph89%29.86 "HgN/A
11:00 PM77 °FPassing clouds.3 mph89%29.86 "HgN/A
10:30 PM79 °FPassing clouds.6 mph84%29.86 "HgN/A
10:00 PM79 °FPassing clouds.6 mph84%29.86 "HgN/A
9:30 PM79 °FPassing clouds.7 mph89%29.86 "HgN/A
9:00 PM79 °FPassing clouds.6 mph89%29.86 "HgN/A
8:30 PM79 °FPassing clouds.3 mph89%29.83 "HgN/A
8:00 PM81 °FPassing clouds.3 mph79%29.83 "HgN/A
7:00 PM84 °FPassing clouds.3 mph66%29.80 "HgN/A
6:00 PM86 °FPassing clouds.5 mph66%29.77 "HgN/A
5:30 PM82 °FWarm.1 mph79%29.77 "HgN/A
5:00 PM81 °FSprinkles. Scattered clouds.9 mph79%29.77 "Hg5 mi
4:30 PM88 °FSprinkles. Scattered clouds.7 mph62%29.74 "HgN/A
4:00 PM88 °FScattered clouds.8 mph62%29.74 "HgN/A
3:30 PM90 °FScattered clouds.7 mph55%29.74 "HgN/A
3:00 PM90 °FScattered clouds.6 mph55%29.74 "HgN/A
2:30 PM90 °FScattered clouds.5 mph55%29.74 "HgN/A
2:00 PM90 °FScattered clouds.6 mph52%29.74 "HgN/A
1:30 PM90 °FScattered clouds.6 mph55%29.77 "HgN/A
1:00 PM90 °FScattered clouds.3 mph52%29.77 "HgN/A
12:00 PM90 °FScattered clouds.9 mph55%29.83 "HgN/A
11:30 AM90 °FScattered clouds.8 mph55%29.83 "HgN/A
11:00 AM91 °FScattered clouds.6 mph49%29.83 "HgN/A
10:30 AM90 °FScattered clouds.3 mph63%29.86 "Hg3 mi
10:00 AM86 °FScattered clouds.3 mph66%29.86 "Hg5 mi
9:30 AM84 °FScattered clouds.5 mph70%29.86 "Hg5 mi
9:00 AM84 °FScattered clouds.7 mph74%29.86 "Hg4 mi
8:30 AM84 °FScattered clouds.7 mph70%29.86 "HgN/A
8:00 AM84 °FScattered clouds.3 mph66%29.83 "HgN/A
7:30 AM81 °FScattered clouds.1 mph70%29.83 "HgN/A
7:00 AM79 °FScattered clouds.2 mph70%29.83 "HgN/A
Weather by CustomWeather, © 2014

See weather overviewHow to use our weather pages